Simultaneous Nadir Overpasses (SNOs) Predictions

Prediction of SNOs between NOAA-19 and METOP-C Satellite Orbit:

Table of predicted SNOs for the next 14.0 days since TLE Epoch: 9/14/2024
Index Date (NOAA-19) Time (NOAA-19) Lat,Lon (NOAA-19) SZA (NOAA-19 ) Date (METOP-C) Time (METOP-C) Lat,Lon (METOP-C) SZA (METOP-C ) Distance(km) Time Diff (sec)
1 09/17/2024 06:21:40 -72.39,-104.20 109.60 09/17/2024 06:22:40 -72.38,-104.24 109.62 1.48 60
2 09/17/2024 07:12:23 72.86, 64.10 70.85 09/17/2024 07:13:11 72.85, 64.05 70.83 1.94 48
3 09/17/2024 08:03:18 -73.35,-127.55 108.68 09/17/2024 08:03:42 -73.37,-127.49 108.67 2.67 24
4 09/17/2024 08:54:00 73.87, 41.00 71.83 09/17/2024 08:54:12 73.88, 41.04 71.84 1.97 12
5 09/17/2024 09:44:48 -74.68,-149.61 107.39 09/17/2024 09:44:37 -74.68,-149.60 107.39 0.26 11
6 09/17/2024 10:35:32 75.09, 18.89 73.03 09/17/2024 10:35:09 75.08, 18.87 73.03 0.77 23
7 09/17/2024 11:26:23 -75.72,-171.85 106.32 09/17/2024 11:25:37 -75.70,-171.91 106.34 2.33 46



Historial Predications of SNOs between NOAA-19 and METOP-C
